Location: Recife
(8.0585°S, 34.8848°W)
Time: 23:50:10
(UTC-03:00)

S-56A Canister/Altair - Pass Details

Date: 14 April 2026
Orbit: 633 x 2484 km, 38.9° (Epoch: 11 May)

Event Time Altitude Azimuth Distance (km) Brightness Sun altitude
Exits shadow 01:12:05 10° 48° (NE) 3,838 11.3 -62.3°
Drops below altitude 10° 01:12:11 10° 48° (NE) 3,872 11.3 -62.2°
Sets 01:16:02 0° 48° (NE) 5,151 12.1 -61.3°
